Simultaneous Nadir Overpasses (SNOs) Predictions

Prediction of SNOs between NOAA-19 and TERRA Satellite Orbit:

Table of predicted SNOs for the next 14.0 days since TLE Epoch: 7/18/2020
Index Date (NOAA-19) Time (NOAA-19) Lat,Lon (NOAA-19) SZA (NOAA-19 ) Date (TERRA) Time (TERRA) Lat,Lon (TERRA) SZA (TERRA ) Distance(km) Time Diff (sec)
1 07/18/2020 17:49:22 -79.56, 121.61 120.07 07/18/2020 17:49:09 -79.58, 121.63 120.06 2.07 13
2 07/20/2020 23:22:34 79.57,-141.72 60.36 07/20/2020 23:22:53 79.57,-141.85 60.35 2.67 19
3 07/21/2020 00:13:31 -79.34, 27.84 119.63 07/21/2020 00:12:25 -79.39, 24.50 119.92 68.74 66
4 07/23/2020 04:55:56 -79.59, -45.12 119.20 07/23/2020 04:56:37 -79.60, -45.07 119.16 1.81 41
5 07/23/2020 05:46:51 79.58, 122.27 60.82 07/23/2020 05:46:04 79.57, 122.29 60.79 1.57 47
6 07/25/2020 10:29:08 79.60, 51.58 61.29 07/25/2020 10:30:20 79.62, 51.64 61.34 3.20 72
7 07/25/2020 11:20:12 -79.57,-140.91 118.71 07/25/2020 11:19:48 -79.59,-140.94 118.70 2.52 24
8 07/27/2020 16:53:25 79.60, -44.45 61.81 07/27/2020 16:53:32 79.57, -44.52 61.77 3.69 7
9 07/29/2020 22:26:46 -79.61, 52.20 117.66 07/29/2020 22:27:16 -79.60, 52.24 117.66 1.67 30
10 07/29/2020 23:17:41 79.58,-140.20 62.35 07/29/2020 23:16:42 79.59,-140.17 62.34 1.40 59
11 08/01/2020 03:59:59 79.63, 148.79 62.90 08/01/2020 04:00:59 79.61, 148.86 62.91 2.99 60
